カタログに戻る

FREGAT DEB

LostUNKNOWN
NORAD 46107·DEBRIS·🇷🇺 Russia

打ち上げ Jul 18, 2011 から Baikonur Cosmodrome

Loading…

次のパス (今後24時間)

TLE

古いSource: Space-Track

元期: Sep 11, 2020, 19:43 UTC

1 46107U 11037JS  20255.82209247  .00000721  00000-0  36149-3 0  9994
2 46107  51.2337  97.2785 1410580 263.0172  80.8699 12.03419463  7751

AllMySatでFREGAT DEBをリアルタイム追跡

Download on the App Store